Other Public Products
Issued by NWS Charleston, SC

Home | Current Version | Previous Version | Text Only | Print | Product List | Glossary On
Versions: 1 2 3 4 5 6 7 8 9 10 11 12 13 14 15 16 17 18 19 20 21 22 23 24 25 26 27 28 29 30 31 32 33 34 35 36 37 38 39 40 41 42 43 44 45 46 47 48 49 50
440
FPUS82 KCHS 231727
OPUCHS

TEST...KCHS/KSAV Gateway Observations...TEST
National Weather Service Charleston SC
100 PM EDT FRI JUN 23 2017

NOTE: "fair" indicates few or no clouds below 12,000 feet with no
significant weather and/or obstructions to visibility.

SCZ050-WAZ558-NCZ071-TXZ119-213-PAZ071-DCZ001-FLZ074-172-MI076-
NYZ176-178-MAZ016-IL014-TNZ027-NJZ106-GAZ044-MD014-231800-

...Gateway Observations for Charleston International...

CITY           SKY/WX    TMP DP  RH WIND       PRES   REMARKS
Chas Airport   PTSUNNY   88  75  65 SW13      30.03F HX  97
Seattle        SUNNY     68  50  52 N7        30.23S
Charlotte      PTSUNNY   85  71  63 W13       30.00F HX  90
Dallas DFW     MOSUNNY   91  77  63 SE10      29.78S HX 104
Dallas Love    MOSUNNY   91  76  61 S7        29.79S HX 103
Philladelphia  CLOUDY    80  71  74 SW17      29.76F
Wash National  PTSUNNY   88  74  63 SW20      29.79S HX  96
Baltimore      PTSUNNY   85  75  72 SW10G20   29.77F HX  93
Miami          PTSUNNY   89  73  59 SE14      30.05S HX  97
Detroit        PTSUNNY   79  69  71 VRB5      29.59R
Newark         CLOUDY    81  70  69 S17G23    29.72F
Laguardia      PTSUNNY   84  72  67 SW16G22   29.72F
J F K          CLOUDY    83  75  77 S13       29.75F HX  90
Boston Logan   MOSUNNY   88  71  57 S17       29.71F HX  94
Ft. Lauderdale MOSUNNY   87  75  67 SE16      30.05S HX  96
Chicago O`Hare CLOUDY    77  59  53 NW13G20   29.70R
Chicago Midway PTSUNNY   77  57  50 N14       29.70R
Houston Bush   PTSUNNY   90  73  57 S12       29.85R HX  98
Houston Hobby  MOSUNNY   91  74  57 SW13G18   29.85R HX 100
Nashville      LGT RAIN  82  71  69 S23G35    29.77F
Atlanta        CLOUDY    85  70  60 SW13G24   30.01F

$$

GAZ044-118-TXZ119-213-NCZ071-DCZ001-MDZ014-506-PAZ021-071-NJZ106-
NYZ176-178-MAZ106-OHZ011-021-055-MIZ076-KYZ091-ILZ014-INZ047-
MNZ060-ONZ431-231800-

...Gateway Observations for Savannah International...

CITY           SKY/WX    TMP DP  RH WIND       PRES   REMARKS
Savannah Arpt  PTSUNNY   90  74  59 S10       30.03F HX  99
Atlanta        CLOUDY    85  70  60 SW13G24   30.01F
Charlotte      PTSUNNY   85  71  63 W13       30.00F HX  90
Dallas DFW     MOSUNNY   91  77  63 SE10      29.78S HX 104
Houston Bush   PTSUNNY   90  73  57 S12       29.85R HX  98
Wash National  PTSUNNY   88  74  63 SW20      29.79S HX  96
Wash Dulles    CLOUDY    83  72  69 S15       29.78F
Baltimore      PTSUNNY   85  75  72 SW10G20   29.77F HX  93
Philadelphia   CLOUDY    80  71  74 SW17      29.76F
Newark         CLOUDY    81  70  69 S17G23    29.72F
Laguardia      PTSUNNY   84  72  67 SW16G22   29.72F
J F K          CLOUDY    83  75  77 S13       29.75F HX  90
Boston         MOSUNNY   88  71  57 S17       29.71F HX  94
Pittsburg      LGT RAIN  75  72  90 SW10G24   29.71F
Akron          TSTM      71  67  87 SW8       29.70R VSB 1
Cleveland      CLOUDY    77  72  84 SW20      29.63F
Cincinnati     CLOUDY    81  71  71 SW16G24   29.73F
Columbus       CLOUDY    74  73  98 SW15      29.71F
Detroit        PTSUNNY   79  69  71 VRB5      29.59R
Chicago O`Hare CLOUDY    77  59  53 NW13G20   29.70R
Minneapolis    PTSUNNY   69  53  56 NW17G24   29.80R
Indianapolis   TSTM      69  68  96 S18       29.70F FOG
Toronto Canada CLOUDY    72  70  94 W9        29.57R

$$




USA.gov is the U.S. government's official web portal to all federal, state and local government web resources and services.